Temperature
29 30 30 29 29 29 29 30 30 30 30 29 29 28 26 25 24 24 23 22 22 21 20 20 20 19 19 19 19 19 19 19 18 18 18 17 17 17 17 17 16 16 16 16
28 29 29 29 29 29 29 29 29 29 29 29 28 26 25 25 24 24 23 22 21 21 20 20 19 19 19 19 19 18 18 18 18 18 18 17 17 17 17 17 17 16 16 16
28 29 28 28 29 29 29 29 29 29 29 28 27 26 25 24 24 23 22 21 21 21 20 19 19 19 19 19 18 18 18 18 18 18 17 17 17 17 16 16 16 16 16 15
28 27 26 28 28 28 28 28 28 28 27 27 26 24 24 23 23 22 21 21 20 20 20 19 19 19 19 18 18 18 18 18 17 17 17 17 16 16 16 16 16 16 16 15
27 27 27 28 27 27 27 27 27 27 26 26 24 24 23 22 22 21 21 20 20 20 20 19 19 19 18 18 18 18 18 17 17 17 17 17 16 16 16 16 16 15 15 15
26 26 26 27 27 26 26 26 26 26 25 25 24 25 25 21 21 20 20 19 19 19 19 19 18 18 18 18 18 17 17 17 17 17 17 16 16 16 16 15 15 15 15 15
26 26 27 26 25 25 25 25 25 24 24 24 24 24 22 21 20 19 19 18 18 18 18 18 18 18 18 17 17 17 17 17 17 17 16 16 16 16 15 15 15 15 14 15
25 25 25 25 25 25 24 23 23 23 23 23 22 21 20 20 19 19 18 18 18 18 18 17 17 17 17 17 17 17 16 16 16 16 16 16 15 15 15 15 14 14 14 14
25 25 23 22 23 22 22 22 22 22 22 21 21 20 19 19 18 18 18 18 17 17 17 17 17 17 17 17 16 16 16 16 16 16 15 15 15 15 14 14 14 14 14 14
23 23 22 22 22 21 21 21 21 21 20 20 20 19 19 19 18 18 17 17 17 17 17 16 16 16 16 16 16 16 16 15 15 15 15 15 14 14 14 14 14 14 14 14
22 22 22 21 21 20 20 20 20 19 20 19 19 19 18 18 18 17 17 17 16 16 16 16 16 16 16 16 16 16 15 15 15 15 15 15 14 14 14 14 14 13 13 13
22 22 22 21 20 20 20 19 19 19 19 19 18 18 18 17 17 17 16 16 16 16 16 16 16 16 16 16 15 15 15 15 15 15 14 14 14 14 14 14 14 14 13 13
20 20 20 19 19 19 19 19 18 18 18 18 18 17 17 17 16 16 16 15 15 15 15 15 15 15 15 15 15 15 15 15 15 15 14 14 14 13 13 13 13 13 13 13
18 18 18 18 18 18 18 18 18 17 17 17 17 17 16 16 16 16 15 15 15 15 15 15 15 15 14 14 14 14 14 14 14 14 14 14 14 13 13 13 13 13 13 13
17 17 18 18 17 17 17 17 17 17 17 16 16 16 16 15 15 15 15 14 14 14 14 14 14 14 14 14 14 14 14 14 14 13 14 14 13 13 13 13 13 13 13 13
17 17 17 17 17 17 17 17 17 17 16 16 16 15 15 15 15 15 14 14 14 14 14 14 14 14 14 14 13 13 13 13 13 13 13 13 13 13 13 13 13 13 13 12
17 17 17 17 16 16 16 16 16 16 16 16 15 15 15 14 14 14 14 14 13 13 13 13 13 14 13 13 13 13 13 13 13 13 13 13 13 13 13 13 13 13 12 12
16 16 16 16 16 16 16 15 15 15 15 15 14 14 14 14 14 14 13 13 13 13 13 13 13 13 13 13 13 13 13 13 13 13 13 13 12 12 12 12 12 12 12 12
15 15 15 15 15 15 15 15 15 14 14 14 14 14 14 14 13 13 13 13 13 13 13 13 13 13 13 13 13 13 13 13 13 13 12 12 12 12 12 12 12 12 12 12
14 14 14 14 14 14 14 14 14 14 14 14 13 13 13 13 13 13 13 13 13 13 13 13 12 12 12 12 12 12 12 13 13 12 12 12 12 12 12 12 12 12 12 11
14 14 14 14 14 14 13 13 13 13 13 13 13 13 13 13 13 12 12 13 13 12 12 12 12 12 12 12 12 12 12 12 12 12 12 12 12 12 12 12 12 11 11 11
13 13 13 13 13 13 13 13 13 13 13 12 12 12 12 12 12 12 12 12 12 12 12 12 12 12 11 11 11 12 12 12 12 12 12 12 12 11 12 11 11 11 11 11
12 12 12 12 12 12 12 12 12 12 12 12 12 12 12 12 12 12 12 12 12 12 11 11 11 11 11 11 11 11 11 12 12 12 12 12 11 11 11 11 11 11 10 10
12 12 12 11 12 12 12 12 12 12 12 12 12 12 11 12 12 12 12 12 11 11 11 11 11 11 11 11 11 11 11 11 11 11 11 11 11 11 11 11 11 10 10 10
11 11 11 11 11 12 12 12 12 12 12 12 12 12 12 11 11 11 11 11 11 11 11 11 11 11 11 10 10 10 11 11 11 11 11 11 11 11 10 10 10 10 10 9
11 11 11 11 11 11 12 12 12 12 12 12 12 11 11 11 11 11 11 11 11 11 10 10 11 11 10 10 10 10 10 10 10 10 10 10 10 10 10 10 9 9 9 9
11 11 11 11 11 11 11 11 11 11 11 11 11 11 10 10 10 10 10 10 10 10 10 10 10 10 10 10 10 10 10 10 10 10 10 10 10 9 9 9 9 9 8 8
Wind_Speed
8 6 6 8 8 9 11 11 10 7 7 6 5 4 4 4 5 6 5 5 5 5 5 6 6 6 5 5 5 5 5 5 5 5 4 4 4 4 4 4 4 3 3 3
9 8 8 10 10 10 11 11 10 9 7 3 3 5 5 5 5 5 5 4 4 4 5 5 5 5 4 4 4 5 5 4 4 4 4 4 5 4 4 4 4 4 4 4
10 8 9 12 10 11 10 9 10 10 6 4 5 5 5 5 5 4 4 4 4 3 3 4 4 4 4 4 4 5 4 4 4 4 5 5 5 4 4 4 4 4 4 4
8 7 12 4 0 4 7 7 7 5 4 4 4 4 4 4 4 4 4 3 3 3 2 3 4 4 3 3 4 4 4 4 4 5 5 5 5 5 5 5 4 4 5 5
8 11 10 6 4 4 5 5 4 5 4 4 5 6 6 4 3 3 3 3 2 2 2 2 2 4 5 4 4 4 4 4 4 5 5 4 5 5 5 5 4 4 4 4
9 10 10 2 3 3 5 6 3 3 4 5 6 6 4 4 3 3 3 3 2 2 2 2 1 2 4 4 4 4 4 4 4 4 5 5 5 5 4 4 4 5 4 4
13 11 7 1 2 5 7 1 3 3 3 4 4 1 3 3 3 3 3 2 2 1 1 1 1 2 3 4 4 4 4 4 4 4 5 5 4 4 4 4 4 4 4 4
10 12 7 3 4 3 2 3 3 2 2 2 3 4 3 3 3 2 2 1 1 1 0 0 1 2 3 3 3 3 3 4 4 5 5 4 4 4 4 4 4 4 4 4
5 3 2 1 1 1 1 2 2 1 2 3 2 2 3 2 2 1 0 0 0 1 1 1 1 2 3 2 2 3 4 4 5 5 5 5 5 5 5 5 5 5 4 4
4 3 1 1 1 1 1 1 1 1 2 3 2 1 1 1 1 0 0 1 1 1 1 1 2 2 2 2 3 4 4 5 5 5 5 4 4 5 5 5 5 5 5 4
6 4 3 2 1 1 1 1 2 2 2 2 2 2 1 1 1 1 1 2 2 2 2 2 2 2 2 2 3 4 4 4 5 5 4 4 4 3 4 4 4 4 4 4
6 4 3 2 1 1 1 2 2 2 2 2 3 3 3 2 2 2 3 3 3 3 3 2 2 2 2 2 2 3 4 4 4 4 4 4 4 3 1 2 3 3 3 4
4 4 3 2 2 1 2 2 2 3 3 3 2 3 3 3 3 3 3 3 4 4 3 3 3 3 3 2 2 3 4 4 4 4 4 5 5 4 3 2 4 4 5 4
3 3 3 3 2 3 3 3 3 3 3 3 2 3 3 3 3 4 4 4 4 4 4 4 3 3 3 3 3 4 4 4 4 5 5 5 5 5 5 5 4 3 4 7
4 5 4 3 3 3 3 3 3 3 3 2 2 3 3 4 4 4 4 4 4 4 4 4 4 4 3 4 4 4 4 4 4 5 5 4 5 5 5 5 4 3 2 4
4 3 4 4 4 4 4 4 4 4 4 4 3 3 3 4 4 4 4 4 5 5 5 5 5 4 4 4 4 4 4 4 5 6 5 4 4 5 5 4 4 4 4 3
4 3 3 3 3 3 3 3 4 4 4 4 4 4 4 4 4 5 5 5 4 5 5 5 5 5 5 5 5 5 4 4 6 7 6 5 5 5 5 4 4 4 4 3
4 3 3 3 3 3 3 3 3 4 4 4 4 4 4 5 5 5 5 5 4 4 4 5 5 5 5 5 5 5 5 5 5 5 5 5 5 5 4 4 4 4 4 3
2 2 2 3 3 3 4 4 4 4 4 4 5 5 5 5 6 6 5 5 6 6 5 5 4 6 6 5 5 5 6 5 5 5 5 4 5 5 4 4 4 4 4 3
1 2 2 3 3 3 4 4 4 4 4 4 5 5 6 6 6 6 5 6 6 5 5 4 5 5 5 5 4 5 6 6 5 5 5 5 5 5 5 5 5 4 4 4
1 2 3 3 4 4 4 4 4 5 5 5 5 6 6 7 6 6 6 6 5 4 5 5 5 5 4 3 4 5 6 5 5 5 5 5 5 5 5 4 4 4 4 4
3 3 4 4 4 4 4 4 5 5 5 5 6 6 6 6 6 6 6 5 6 3 4 5 5 2 3 4 5 5 5 5 5 5 4 5 5 5 4 4 4 4 4 4
3 4 4 4 4 4 5 5 5 5 5 5 6 6 7 6 6 6 5 4 5 3 4 4 2 1 2 4 5 5 5 5 4 4 4 4 4 4 4 4 4 4 4 4
4 4 4 4 4 4 5 5 5 5 5 5 5 5 6 5 5 5 5 3 3 3 4 2 1 2 4 4 4 4 4 3 4 4 4 3 4 4 4 4 4 4 3 3
4 4 4 4 4 4 4 4 4 4 5 5 5 5 5 4 4 4 4 3 2 3 3 2 4 5 4 4 3 3 3 3 3 3 3 3 4 3 3 3 3 3 3 3
4 4 3 4 4 4 4 4 4 4 4 4 4 4 4 3 3 3 2 2 2 2 2 1 1 3 3 3 3 3 3 3 3 3 4 3 3 3 3 2 3 3 3 3
4 3 3 3 3 3 4 3 4 4 4 4 3 3 3 3 2 2 2 1 1 1 1 1 1 2 2 2 2 2 2 3 3 3 3 2 2 2 2 2 2 2 3 3
Wind_Direction
258 263 250 245 240 235 242 256 263 259 250 224 203 182 159 153 151 146 144 146 149 152 153 157 159 162 169 177 174 177 182 190 197 202 201 206 211 215 218 223 228 230 240 244
242 239 242 247 246 241 243 250 253 254 250 223 175 165 167 165 162 158 151 149 148 154 158 163 163 164 167 179 180 184 192 199 201 205 206 212 219 218 217 224 232 233 239 246
244 236 244 244 243 241 240 245 249 251 244 195 192 185 179 170 167 162 154 150 153 158 167 173 171 169 176 184 185 190 197 205 209 211 213 219 224 219 222 227 231 236 241 245
247 234 243 251 212 246 243 246 251 253 231 204 194 178 166 161 158 146 141 145 149 158 172 180 176 177 181 191 190 198 205 213 217 218 222 224 224 228 229 233 235 238 242 245
241 241 246 227 202 228 235 241 240 227 211 189 161 158 159 143 138 138 136 136 145 166 174 175 183 178 179 193 195 203 209 217 220 221 223 222 225 230 232 233 236 243 244 243
237 250 255 230 147 209 232 229 196 193 192 181 180 204 159 133 137 127 122 129 142 162 156 152 176 189 193 200 205 218 224 227 224 224 224 225 229 233 235 234 235 241 242 243
235 243 252 88 151 201 229 212 130 172 180 189 202 343 104 134 135 130 116 114 128 145 141 132 179 206 217 217 223 229 230 230 226 226 228 227 228 228 224 229 234 240 243 247
234 239 239 102 176 221 13 83 117 146 156 147 117 99 112 128 138 144 134 127 142 152 184 145 219 224 232 238 246 237 232 232 231 229 231 225 222 221 221 226 228 231 236 244
246 253 59 131 208 32 74 123 109 123 128 138 141 140 129 134 135 125 108 42 233 211 221 244 258 256 254 263 256 241 232 230 232 229 226 221 220 220 219 223 234 233 232 238
240 224 195 198 219 210 190 162 113 112 138 144 160 182 173 165 166 140 319 288 273 246 253 270 276 271 271 269 252 236 233 233 232 230 228 222 226 222 223 225 231 238 240 241
240 236 224 212 208 194 187 177 161 145 152 155 176 214 244 241 245 268 280 289 279 267 264 275 292 289 283 276 255 240 239 238 238 233 228 227 226 233 230 227 228 237 245 245
247 232 243 224 196 210 212 203 193 190 197 200 207 226 243 256 267 272 274 272 269 267 268 272 282 283 281 269 255 244 239 241 244 239 229 229 223 217 75 223 177 201 237 251
273 281 270 251 236 250 261 253 238 231 230 229 239 251 258 263 261 263 265 267 268 270 270 270 272 276 276 260 249 252 254 250 257 255 237 232 228 223 223 205 179 192 201 206
261 253 233 227 244 266 266 255 241 233 236 239 249 259 263 265 263 261 266 268 269 267 266 265 270 280 285 274 263 257 261 256 247 251 244 236 231 228 230 232 225 224 200 189
249 244 236 231 244 253 254 245 233 226 228 240 249 254 260 265 264 268 272 275 269 262 260 261 265 275 276 267 262 263 266 266 261 259 250 238 234 230 232 234 235 230 216 189
257 243 225 219 228 240 243 240 239 239 240 245 252 257 264 270 273 275 272 269 260 259 261 262 264 270 268 262 264 264 263 258 257 253 247 241 236 237 235 231 231 230 225 223
239 231 229 234 240 246 254 258 258 257 256 257 261 266 271 274 274 274 274 272 264 261 262 264 267 268 263 258 261 265 268 261 245 248 244 238 237 240 240 238 241 240 235 213
247 249 256 254 251 258 271 272 270 269 268 266 267 268 270 269 270 272 272 271 263 262 265 267 268 268 264 262 265 269 265 263 258 254 251 246 244 242 237 234 239 242 242 210
229 232 242 255 262 266 269 270 274 273 271 268 269 270 268 268 266 265 266 265 261 260 266 270 266 260 263 266 271 262 259 257 255 252 248 234 236 244 242 241 242 240 243 241
247 242 243 255 261 263 266 270 274 273 273 273 273 273 274 274 271 265 261 260 263 275 276 273 267 264 264 269 273 266 261 255 252 248 242 239 236 239 245 246 244 241 241 242
325 294 277 266 264 266 270 274 272 273 276 274 275 277 278 278 274 269 265 266 269 274 273 260 254 258 258 275 260 259 255 250 246 244 242 241 239 239 242 246 248 245 243 244
318 314 307 295 278 277 282 281 276 276 274 274 278 280 281 279 274 267 261 267 273 269 265 265 261 276 289 273 257 255 254 252 248 244 243 241 242 243 248 252 253 251 245 242
311 305 297 291 287 285 284 281 279 276 275 277 279 279 280 282 280 274 269 266 269 274 269 270 297 345 272 258 259 257 255 253 253 250 249 249 248 247 250 252 254 256 257 254
303 300 295 288 285 285 288 287 285 283 282 280 278 276 276 276 275 272 271 256 250 250 261 267 151 221 240 250 257 259 257 253 252 252 253 253 252 253 252 251 256 255 250 255
292 288 286 285 282 285 283 277 275 277 281 286 289 286 280 275 275 282 285 273 244 228 253 203 180 200 228 248 249 255 259 258 258 261 258 257 256 256 253 254 254 255 255 247
295 291 292 293 300 300 299 298 297 298 296 295 295 299 302 299 287 280 272 255 242 238 257 254 212 216 235 245 246 250 254 248 239 242 250 256 256 257 257 251 254 262 260 252
287 286 277 282 285 292 298 301 300 298 299 300 300 309 313 314 310 302 283 255 225 234 246 257 248 234 238 246 250 254 258 258 253 250 250 253 263 263 255 259 270 270 264 258
Height
1473 1471 1472 1474 1475 1476 1477 1475 1477 1474 1475 1474 1478 1482 1487 1490 1492 1494 1496 1498 1500 1502 1503 1504 1506 1507 1509 1510 1511 1512 1512 1513 1514 1515 1515 1515 1516 1516 1516 1516 1517 1516 1516 1516
1477 1472 1473 1475 1473 1473 1474 1473 1473 1474 1475 1474 1479 1484 1487 1489 1491 1493 1495 1498 1499 1501 1502 1503 1504 1506 1507 1508 1509 1510 1510 1511 1512 1512 1513 1513 1513 1514 1514 1514 1514 1514 1513 1513
1478 1472 1475 1479 1471 1471 1472 1471 1472 1473 1473 1476 1480 1483 1486 1489 1491 1493 1495 1497 1498 1500 1501 1502 1503 1504 1505 1506 1507 1508 1508 1509 1509 1509 1510 1510 1511 1511 1511 1511 1511 1510 1510 1510
1476 1481 1492 1472 1467 1468 1470 1470 1470 1472 1474 1477 1481 1485 1487 1489 1491 1493 1494 1496 1497 1498 1499 1501 1501 1502 1503 1504 1505 1505 1506 1506 1506 1507 1507 1507 1507 1507 1507 1508 1508 1507 1507 1507
1477 1480 1475 1469 1469 1471 1472 1473 1472 1473 1476 1479 1482 1484 1487 1490 1491 1493 1494 1495 1496 1497 1498 1498 1499 1500 1501 1502 1502 1503 1503 1503 1503 1503 1503 1504 1504 1504 1504 1504 1504 1504 1504 1504
1478 1483 1481 1469 1468 1471 1473 1476 1473 1475 1477 1479 1481 1480 1483 1489 1491 1492 1493 1494 1494 1495 1496 1496 1497 1498 1499 1499 1499 1499 1499 1499 1500 1500 1500 1500 1500 1501 1501 1501 1501 1501 1501 1500
1475 1478 1469 1468 1471 1473 1479 1476 1475 1476 1478 1480 1481 1482 1486 1488 1490 1491 1492 1492 1493 1493 1494 1494 1494 1495 1495 1496 1496 1496 1496 1497 1496 1497 1497 1497 1497 1497 1497 1497 1498 1497 1497 1497
1472 1476 1475 1471 1472 1473 1475 1476 1477 1478 1480 1481 1483 1485 1486 1488 1489 1490 1491 1491 1491 1491 1492 1492 1492 1492 1492 1493 1493 1493 1493 1493 1493 1493 1494 1494 1494 1494 1494 1494 1494 1494 1494 1494
1469 1471 1474 1474 1474 1476 1477 1478 1479 1480 1481 1483 1484 1486 1486 1487 1488 1489 1490 1490 1490 1490 1490 1490 1490 1490 1490 1490 1490 1490 1490 1490 1490 1490 1490 1490 1490 1490 1491 1491 1492 1492 1492 1491
1471 1470 1473 1475 1476 1477 1478 1479 1480 1480 1481 1483 1485 1486 1487 1487 1487 1488 1488 1488 1488 1489 1488 1488 1488 1488 1487 1487 1487 1487 1486 1486 1487 1487 1487 1487 1487 1487 1488 1488 1488 1489 1489 1489
1472 1473 1474 1475 1476 1477 1478 1479 1480 1480 1481 1482 1485 1486 1486 1486 1486 1486 1486 1486 1486 1486 1485 1485 1485 1485 1484 1484 1483 1483 1483 1483 1484 1484 1484 1483 1484 1484 1484 1484 1485 1485 1486 1486
1469 1472 1473 1474 1476 1477 1478 1478 1479 1480 1481 1482 1482 1483 1484 1484 1484 1484 1484 1484 1484 1484 1483 1482 1482 1482 1481 1481 1480 1480 1480 1480 1481 1481 1481 1481 1481 1481 1480 1481 1481 1481 1481 1482
1472 1473 1473 1474 1476 1477 1477 1478 1478 1479 1480 1480 1481 1482 1482 1481 1481 1481 1481 1481 1481 1481 1480 1480 1479 1479 1479 1478 1478 1477 1477 1477 1477 1478 1478 1477 1477 1477 1477 1477 1477 1477 1477 1477
1473 1473 1473 1474 1474 1475 1476 1476 1477 1477 1478 1478 1479 1479 1479 1479 1479 1479 1478 1478 1478 1477 1477 1476 1476 1476 1475 1475 1475 1474 1474 1473 1473 1473 1473 1474 1474 1474 1474 1474 1474 1473 1473 1473
1471 1472 1472 1472 1473 1474 1474 1474 1475 1475 1476 1476 1476 1476 1476 1476 1476 1476 1475 1475 1474 1474 1473 1473 1472 1472 1472 1472 1472 1471 1471 1470 1470 1470 1469 1469 1470 1470 1470 1470 1470 1470 1470 1470
1470 1470 1470 1471 1471 1472 1472 1473 1473 1473 1473 1474 1474 1474 1474 1473 1473 1472 1472 1471 1471 1470 1470 1469 1469 1469 1469 1468 1468 1468 1467 1466 1466 1467 1466 1466 1466 1466 1466 1466 1467 1466 1466 1466
1468 1468 1468 1469 1469 1470 1471 1471 1471 1471 1471 1471 1471 1471 1471 1470 1470 1469 1469 1468 1467 1466 1466 1465 1465 1465 1465 1465 1464 1464 1464 1463 1462 1462 1463 1462 1462 1462 1463 1463 1463 1463 1463 1462
1467 1467 1467 1467 1468 1468 1469 1469 1469 1469 1469 1469 1469 1468 1468 1467 1467 1466 1465 1464 1463 1463 1463 1462 1462 1461 1461 1461 1460 1460 1460 1459 1459 1459 1458 1458 1458 1458 1459 1459 1459 1459 1459 1459
1465 1465 1465 1466 1466 1467 1466 1467 1467 1467 1466 1466 1465 1465 1464 1464 1463 1462 1462 1461 1460 1459 1459 1459 1458 1457 1457 1456 1456 1456 1456 1455 1455 1455 1455 1455 1455 1455 1456 1455 1456 1456 1456 1456
1463 1464 1464 1464 1464 1464 1464 1464 1464 1464 1463 1463 1462 1461 1460 1460 1459 1459 1457 1457 1457 1456 1455 1455 1454 1453 1453 1452 1451 1451 1452 1451 1451 1451 1452 1452 1452 1452 1452 1452 1452 1452 1452 1452
1462 1462 1462 1462 1462 1462 1462 1461 1461 1460 1460 1459 1459 1458 1457 1456 1455 1454 1453 1453 1452 1452 1451 1451 1450 1449 1449 1448 1447 1448 1448 1448 1448 1448 1448 1448 1449 1449 1449 1449 1449 1449 1449 1449
1461 1460 1460 1459 1459 1459 1459 1458 1458 1457 1456 1456 1455 1454 1453 1452 1451 1450 1449 1449 1448 1448 1447 1447 1447 1446 1445 1444 1445 1445 1444 1444 1445 1445 1445 1445 1445 1446 1446 1446 1446 1446 1446 1446
1459 1459 1458 1458 1457 1456 1455 1455 1454 1454 1453 1452 1451 1450 1449 1448 1447 1446 1445 1445 1445 1444 1443 1443 1442 1441 1440 1441 1441 1441 1441 1441 1442 1442 1442 1442 1442 1442 1442 1442 1442 1442 1442 1442
1457 1456 1456 1455 1454 1453 1452 1451 1451 1450 1449 1448 1447 1446 1445 1444 1443 1442 1441 1441 1440 1440 1439 1439 1438 1437 1437 1437 1437 1438 1438 1438 1439 1439 1439 1439 1439 1439 1439 1439 1438 1438 1438 1438
1455 1454 1453 1452 1452 1450 1449 1448 1447 1446 1446 1445 1444 1442 1441 1440 1439 1439 1438 1437 1437 1436 1436 1435 1434 1433 1434 1435 1435 1435 1436 1436 1436 1436 1436 1436 1436 1436 1436 1436 1435 1435 1434 1434
1452 1451 1450 1449 1449 1448 1447 1446 1445 1443 1442 1441 1440 1439 1438 1437 1436 1435 1435 1434 1434 1433 1432 1432 1431 1431 1432 1432 1433 1433 1433 1433 1433 1433 1433 1433 1433 1433 1433 1433 1432 1432 1431 1431
1450 1449 1448 1447 1446 1445 1444 1443 1442 1441 1440 1439 1438 1437 1436 1435 1434 1433 1432 1431 1431 1430 1430 1430 1430 1430 1430 1430 1431 1431 1431 1431 1431 1431 1431 1431 1431 1431 1430 1430 1429 1429 1428 1428